FREGAT DEB, 46252

Orbit data source: Space-Track

FREGAT DEB, 46252 is space debris in LEO originally from a launch on Mon, 18 Jul 2011 UTC launched from the Tyuratam Missile And Space Complex (TTMTR). Debris objects in space refer to the collection of defunct objects orbiting the Earth. Examples of debris include non-operational satellites, rocket bodies, and fragments generated from explosions, collisions, or faulty payload assembly.

Loading next visibility...
Identifier
46252, 2011-037KN
Orbit
LEO
Country
Flag of CISCIS
Related business
Manufacturer
Lavochkin
Mission
Spacecraft
Bus & Motor
Unknown
Mass
Unknown
Launch date (UTC)
2011-07-18 (14 years ago)
Launch vehicle
Unknown
Launch site
Tyuratam Missile And Space Complex (TTMTR)
Object type
Payload
Rocket body
Debris
Shape & HBR
Unknown shape, 0.1 m
Radar Cross Section
Medium (>0.1 m² and <1 m²)

Expand to show TLE details & history
Last TLE update: 11 hours ago

TLE from 11 hours ago
0 FREGAT DEB
1 46252U 11037KN  25290.88295262  .00040812  00000-0  10658+1 0  9996
2 46252  50.5405 248.0031 1122319  99.3242 273.5930 10.43409709188335
Epoch: 2025-10-17T21:11Z
TLE epoch observation values (Epoch: 2025-10-17T21:11:27.106Z)
Latitude
-0°
Longitude
-96.48178°
Altitude
2,517.745 km
Speed
6.677 km/s
True Right ascension
16h 32m 00s
True Declination
0° 00' 00"
Sunlit
Object was in daylight at epoch
Visualization orbit readout
Latitude
Unknown
Longitude
Unknown
Altitude
Unknown
Speed
Unknown
Apparent Right ascension
Unknown
Apparent Declination
Unknown
Sunlit
N/A
Visualization observer readout
Local Sidereal Time
03:00:01
Azimuth
Unknown
Elevation
Unknown
Doppler factor
Unknown
Orbital elements
Apogee altitude
3,461.685 km
Perigee altitude
1,475.873 km
Semi-major axis
8,846.916 km
Eccentricity
0.11223
Inclination
50.5405°
RAAN
248.0031°
Arg. of periapsis
99.3242°
True anomaly
260.75207°
Mean anomaly
273.593°
Eccentric anomaly
267.17043°
Mean motion
2.60829 °/min
Orbital period
138.02 mins
BSTAR
1.0658
Loading maneuver chart data...
Computing Atmospheric mass density...
Loading historical data...
Loading historical data...
Loading historical data...
Loading historical data...
Loading historical data...
Loading historical data...
Loading historical data...

Documentation

Showing up to 5 results
|